Location: Ay?beleni
(36.6500°N, 30.3000°E)
Time: 00:56:02
(UTC+00:00)

Cosmos 2278 - Pass Details

Date: 16 October 2021
Orbit: 838 x 854 km, 71.1° (Epoch: 04 December)

Event Time Altitude Azimuth Distance (km) Brightness Sun altitude
Rises 15:59:23 0° 183° (S) 3,378 6.9 -8.4°
Reaches altitude 10° 16:01:54 10° 177° (S) 2,449 6.1 -9.0°
Maximum altitude 16:07:13 45° 106° (ESE) 1,137 4.0 -10.0°
Drops below altitude 10° 16:12:35 10° 35° (NE) 2,474 5.8 -11.1°
Sets 16:15:08 0° 29° (NNE) 3,415 6.5 -11.6°
